weather.gov     
National Weather Service

Terminal Aerodrome Forecast
NWS Homepage
This page is being discontinued on March 12, 2014.
The same data is available at this site. Please update your bookmarks.
Thank you, and we apologize for the inconvenience.
Please send an email to SR-SRH.Webmaster@noaa.gov with any concerns.


Current Version
Previous Version:    01  02  03  04  05  06  07  08  09  10  11  12  13  14  15  16  17  18  19  20  21  22  23  24  25  26  27  28  29  30  
   31  32  33  34  35  36  37  38  
[Printable]
479
FTUS44 KSHV 230500
TAFMLU
TAF
KMLU 230531Z 2306/2406 00000KT P6SM BKN250
      TEMPO 2309/2313 5SM BR
     FM231500 VRB04KT P6SM SCT030 BKN250
     FM231800 VRB04KT P6SM VCTS SCT045CB SCT140 BKN250
     FM240200 VRB03KT P6SM FEW050 SCT140 BKN250=


U.S. Dept. of Commerce
NOAA National Weather Service
1325 East West Highway
Silver Spring, MD 20910
E-mail: w-nws.webmaster@noaa.gov
Page last modified: May 16, 2007
NATIONAL WEATHER SERVICE: for Safety, for Work, for Fun - FOR LIFE